Regional Weather Roundup
Issued by NWS

Home | Current Version | Previous Version | Text Only | Print | Product List | Glossary Off
Versions: 1 2 3 4 5 6 7 8 9 10 11 12 13 14 15 16 17 18 19 20 21 22 23 24 25 26 27 28 29 30 31 32 33 34 35 36 37 38 39 40 41 42 43 44 45 46 47 48 49 50

000
ASUS43 KBIS 260120
RWRND

NORTH DAKOTA REGIONAL WEATHER ROUNDUP
NATIONAL WEATHER SERVICE BISMARCK ND
800 PM CDT MON MAY 25 2015

NOTE: "FAIR" INDICATES FEW OR NO CLOUDS BELOW 12,000 FEET WITH NO
SIGNIFICANT WEATHER AND/OR OBSTRUCTIONS TO VISIBILITY.


NDZ001>003-009>011-017-260200-
NORTHWEST NORTH DAKOTA

CITY           SKY/WX    TMP DP  RH WIND       PRES   REMARKS
WILLISTON      MOSUNNY   70  47  43 SW12      29.87R
MINOT          MOSUNNY   74  45  35 SW5       29.80F
MINOT AFB      MOSUNNY   79  43  27 SW5       29.79S
$$

NDZ018>021-031>035-040>046-260200-
SOUTHWEST NORTH DAKOTA

CITY           SKY/WX    TMP DP  RH WIND       PRES   REMARKS
BISMARCK       CLOUDY    67  55  65 SW8       29.85S
DICKINSON      PTSUNNY   64  47  53 S6        29.88S
GARRISON         N/A     72  50  45 W15       29.82F
HETTINGER ARPT CLOUDY    60  50  69 S8        29.92S
$$

NDZ004>008-012>016-024-026-027-054-260200-
NORTHEAST NORTH DAKOTA

CITY           SKY/WX    TMP DP  RH WIND       PRES   REMARKS
GRAND FORKS    PTCLDY    69  51  52 S13       29.78S
GRND FRKS AFB  MOSUNNY   69  54  59 S12G21    29.78S
DEVILS LAKE    MOSUNNY   72  43  35 S6        29.77S
$$

NDZ022-023-025-028>030-036>039-047>053-260200-
SOUTHEAST NORTH DAKOTA

CITY           SKY/WX    TMP DP  RH WIND       PRES   REMARKS
FARGO          CLOUDY    63  55  75 E6        29.82R
JAMESTOWN      MOSUNNY   65  56  72 S14       29.81S
$$




USA.gov is the U.S. government's official web portal to all federal, state and local government web resources and services.